User: anonymous   Login
Location: Unspecified
(0.0000°N, 0.0000°E)
Time: 15:47:58
(UTC+00:00)
Language:

Tiros 1 despin weight - Orbit

View from above orbital plane
View from above orbital plane
View from above satellite
View from above satellite

Ground track
Ground track

The orbit data is extracted from the following two-line orbital elements,

1   115U 60002D   17232.93654490 +.00000058 +00000-0 +34304-4 0  9991
2   115 048.1659 192.8077 0034791 022.5211 337.7220 14.83114361038673
Epoch (UTC): 20 August 2017 22:28:37
Eccentricity: 0.0034791
inclination: 48.1659°
perigee height: 595 km
apogee height: 644 km
right ascension of ascending node: 192.8077°
argument of perigee: 22.5211°
revolutions per day: 14.83114361
mean anomaly at epoch: 337.7220°
orbit number at epoch: 3867

The dashed part of the orbit path shows where the satellite is in the earth's shadow,  

DLR